EW3721 Weather Reports


Display with metric or nautical units.
time (UTC)temp
F
wind
direction
speed
MPH
gust
MPH
rain 1hr
in
rain 24hr
in
rain mn
in
humidity
%
barometer
mb
20260505230105 67 193 2.0 8.0 0.00 0.00 0.00 63 1009.0
20260505225605 67 187 3.0 5.0 0.00 0.00 0.00 64 1009.0
20260505225104 68 204 1.0 7.0 0.00 0.00 0.00 63 1008.9
20260505224604 68 172 2.0 8.0 0.00 0.00 0.00 62 1008.7
20260505224104 68 204 2.0 5.0 0.00 0.00 0.00 63 1009.0
20260505223605 68 197 1.0 5.0 0.00 0.00 0.00 63 1008.9
20260505223105 69 179 2.0 10.0 0.00 0.00 0.00 61 1009.0
20260505222605 69 179 3.0 9.0 0.00 0.00 0.00 61 1009.0
20260505221604 70 188 2.0 6.0 0.00 0.00 0.00 60 1009.0
20260505220604 70 206 2.0 10.0 0.00 0.00 0.00 60 1009.0
20260505220104 70 181 3.0 12.0 0.00 0.00 0.00 59 1009.0
20260505215605 71 217 3.0 6.0 0.00 0.00 0.00 59 1008.9
20260505215104 71 203 3.0 10.0 0.00 0.00 0.00 59 1008.9
20260505213104 73 174 3.0 13.0 0.00 0.00 0.00 56 1008.7
20260505212604 73 184 3.0 7.0 0.00 0.00 0.00 55 1008.7
20260505212104 74 192 5.0 12.0 0.00 0.00 0.00 55 1008.6
20260505211604 74 218 2.0 10.0 0.00 0.00 0.00 55 1008.5
20260505211104 74 204 3.0 12.0 0.00 0.00 0.00 54 1008.6
20260505210104 74 182 1.0 3.0 0.00 0.00 0.00 55 1008.7
20260505205604 74 192 1.0 3.0 0.00 0.00 0.00 55 1008.7
20260505205104 74 200 2.0 8.0 0.00 0.00 0.00 55 1008.7
20260505204604 74 180 2.0 6.0 0.00 0.00 0.00 55 1008.6
20260505204104 74 191 2.0 5.0 0.00 0.00 0.00 55 1008.5
20260505203604 75 181 3.0 12.0 0.00 0.00 0.00 56 1008.6
20260505203104 74 207 2.0 6.0 0.00 0.00 0.00 56 1008.6
20260505202605 75 189 3.0 9.0 0.00 0.00 0.00 55 1008.7
20260505202105 75 166 3.0 7.0 0.00 0.00 0.00 55 1008.8
20260505201604 75 191 2.0 9.0 0.00 0.00 0.00 56 1008.8
20260505201104 75 192 3.0 12.0 0.00 0.00 0.00 54 1008.9
20260505200104 76 185 5.0 7.0 0.00 0.00 0.00 53 1008.9
20260505195604 76 204 1.0 7.0 0.00 0.00 0.00 55 1008.9
20260505195104 75 204 5.0 7.0 0.00 0.00 0.00 55 1008.9
20260505193105 76 181 5.0 12.0 0.00 0.00 0.00 55 1009.1
20260505192603 76 178 3.0 10.0 0.00 0.00 0.00 54 1009.2
20260505192104 76 185 2.0 9.0 0.00 0.00 0.00 57 1009.2
20260505190604 76 189 3.0 12.0 0.00 0.00 0.00 57 1009.5
20260505190104 76 194 3.0 8.0 0.00 0.00 0.00 57 1009.5
20260505185604 76 212 3.0 9.0 0.00 0.00 0.00 55 1009.6
20260505185104 75 187 5.0 10.0 0.00 0.00 0.00 56 1009.6
20260505184604 75 170 1.0 9.0 0.00 0.00 0.00 57 1009.6
20260505184104 75 179 3.0 12.0 0.00 0.00 0.00 56 1009.6
20260505183604 75 183 4.0 15.0 0.00 0.00 0.00 55 1009.6
20260505183104 75 194 3.0 12.0 0.00 0.00 0.00 56 1009.6
20260505182604 75 182 4.0 13.0 0.00 0.00 0.00 58 1009.7
20260505182104 75 193 3.0 10.0 0.00 0.00 0.00 57 1009.6
20260505181604 76 161 5.0 10.0 0.00 0.00 0.00 56 1009.7
20260505181104 76 185 5.0 12.0 0.00 0.00 0.00 56 1009.7
20260505180604 76 172 5.0 10.0 0.00 0.00 0.00 54 1009.7
20260505180104 77 210 2.0 12.0 0.00 0.00 0.00 54 1009.7
20260505175604 77 194 5.0 12.0 0.00 0.00 0.00 53 1009.7
20260505175105 77 179 4.0 12.0 0.00 0.00 0.00 52 1009.6
20260505174604 78 194 4.0 12.0 0.00 0.00 0.00 53 1009.6
20260505174104 77 181 3.0 9.0 0.00 0.00 0.00 53 1009.8
20260505173604 77 163 4.0 12.0 0.00 0.00 0.00 55 1009.9
20260505172607 76 175 2.0 5.0 0.00 0.00 0.00 57 1010.0
20260505172107 75 176 6.0 10.0 0.00 0.00 0.00 56 1009.9
20260505171604 75 180 3.0 10.0 0.00 0.00 0.00 56 1009.9
20260505171104 75 186 5.0 9.0 0.00 0.00 0.00 56 1009.9
20260505170604 75 179 5.0 10.0 0.00 0.00 0.00 58 1009.9
20260505170104 75 185 3.0 12.0 0.00 0.00 0.00 57 1009.9
20260505165604 75 168 5.0 9.0 0.00 0.00 0.00 57 1010.0
20260505165104 75 208 4.0 9.0 0.00 0.00 0.00 59 1009.9
20260505164605 74 180 3.0 10.0 0.00 0.00 0.00 57 1010.1
20260505164103 75 176 4.0 10.0 0.00 0.00 0.00 57 1010.2
20260505163604 75 194 6.0 16.0 0.00 0.00 0.00 56 1010.3
20260505163104 75 174 3.0 14.0 0.00 0.00 0.00 57 1010.4
20260505162604 75 200 3.0 10.0 0.00 0.00 0.00 58 1010.5
20260505161604 75 189 2.0 7.0 0.00 0.00 0.00 60 1010.7
20260505161104 75 214 2.0 7.0 0.00 0.00 0.00 60 1010.7
20260505160604 75 171 5.0 9.0 0.00 0.00 0.00 56 1010.7
20260505160104 75 189 2.0 12.0 0.00 0.00 0.00 58 1010.8
20260505153104 74 183 4.0 13.0 0.00 0.00 0.00 58 1011.2
20260505152604 74 185 2.0 9.0 0.00 0.00 0.00 57 1011.3
20260505152104 74 194 3.0 7.0 0.00 0.00 0.00 55 1011.3
20260505151604 74 191 2.0 8.0 0.00 0.00 0.00 60 1011.4
20260505151104 73 179 5.0 10.0 0.00 0.00 0.00 62 1011.3
20260505150604 73 188 2.0 5.0 0.00 0.00 0.00 63 1011.4
20260505140603 69 190 3.0 9.0 0.00 0.00 0.00 67 1011.1
20260505140104 68 178 3.0 5.0 0.00 0.00 0.00 68 1011.2
20260505124607 56 176 1.0 3.0 0.00 0.00 0.00 96 1011.3
20260505124107 56 178 0.0 1.0 0.00 0.00 0.00 96 1011.4
20260505123607 56 176 0.0 3.0 0.00 0.00 0.00 97 1011.4
20260505122607 55 165 1.0 2.0 0.00 0.00 0.00 97 1011.3
20260505122107 54 165 0.0 2.0 0.00 0.00 0.00 97 1011.5
20260505121607 54 165 1.0 2.0 0.00 0.00 0.00 97 1011.6
20260505121106 53 165 0.0 1.0 0.00 0.00 0.00 97 1011.7
20260505120607 53 165 0.0 2.0 0.00 0.00 0.00 97 1011.7
20260505120107 53 165 1.0 2.0 0.00 0.00 0.00 97 1011.7
20260505115607 52 163 1.0 3.0 0.00 0.00 0.00 97 1011.7
20260505115107 51 165 2.0 3.0 0.00 0.00 0.00 97 1011.8
20260505114606 51 200 1.0 3.0 0.00 0.00 0.00 96 1011.9
20260505114107 50 215 0.0 2.0 0.00 0.00 0.00 96 1011.8
20260505113607 49 217 0.0 1.0 0.00 0.00 0.00 96 1011.8
20260505112607 48 217 0.0 0.0 0.00 0.00 0.00 96 1012.0
20260505112106 48 217 0.0 1.0 0.00 0.00 0.00 96 1011.8
20260505111607 47 217 0.0 0.0 0.00 0.00 0.00 96 1011.8
20260505111106 47 217 0.0 1.0 0.00 0.00 0.00 96 1011.7
20260505110607 46 217 0.0 0.0 0.00 0.00 0.00 95 1011.5
20260505110107 46 217 0.0 1.0 0.00 0.00 0.00 95 1011.4
20260505102107 44 217 0.0 0.0 0.00 0.00 0.00 94 1010.9
20260505101606 44 217 0.0 0.0 0.00 0.00 0.00 94 1010.8
20260505101107 44 217 0.0 0.0 0.00 0.00 0.00 94 1010.8
20260505100607 44 217 0.0 0.0 0.00 0.00 0.00 94 1010.8
20260505100107 44 217 0.0 0.0 0.00 0.00 0.00 94 1010.7
20260505095607 44 217 0.0 0.0 0.00 0.00 0.00 94 1010.7
20260505095107 44 217 0.0 0.0 0.00 0.00 0.00 94 1010.8
20260505094107 44 217 0.0 1.0 0.00 0.00 0.00 94 1010.7
20260505093606 44 217 0.0 1.0 0.00 0.00 0.00 94 1010.7
20260505093107 44 217 0.0 1.0 0.00 0.00 0.00 94 1010.6
20260505092607 44 217 0.0 1.0 0.00 0.00 0.00 93 1010.7
20260505092107 44 217 0.0 1.0 0.00 0.00 0.00 93 1010.7
20260505091607 44 217 0.0 1.0 0.00 0.00 0.00 93 1010.7
20260505091107 44 217 0.0 0.0 0.00 0.00 0.00 93 1010.6
20260505090607 44 217 0.0 1.0 0.00 0.00 0.00 93 1010.6
20260505090107 44 217 1.0 1.0 0.00 0.00 0.00 93 1010.6
20260505085607 44 217 1.0 1.0 0.00 0.00 0.00 93 1010.6
20260505085106 44 217 0.0 0.0 0.00 0.00 0.00 93 1010.6
20260505084606 44 217 0.0 1.0 0.00 0.00 0.00 93 1010.7
20260505084107 44 217 0.0 1.0 0.00 0.00 0.00 93 1010.7
20260505083606 45 217 0.0 0.0 0.00 0.00 0.00 93 1010.8
20260505083106 45 217 0.0 1.0 0.00 0.00 0.00 93 1010.8
20260505082606 45 217 0.0 1.0 0.00 0.00 0.00 92 1010.9
20260505081607 45 217 0.0 1.0 0.00 0.00 0.00 92 1010.8
20260505081107 45 217 0.0 1.0 0.00 0.00 0.00 92 1010.8
20260505080607 45 217 1.0 1.0 0.00 0.00 0.00 92 1010.7
20260505075607 45 217 0.0 1.0 0.00 0.00 0.00 92 1010.7
20260505074607 45 217 0.0 0.0 0.00 0.00 0.00 92 1010.7
20260505074106 45 217 0.0 0.0 0.00 0.00 0.00 92 1010.7
20260505073607 45 217 0.0 2.0 0.00 0.00 0.00 92 1010.8
20260505073106 45 217 0.0 1.0 0.00 0.00 0.00 92 1010.7
20260505072606 45 217 0.0 0.0 0.00 0.00 0.00 92 1010.7
20260505072107 45 217 0.0 1.0 0.00 0.00 0.00 92 1010.8
20260505071607 45 217 1.0 2.0 0.00 0.00 0.00 92 1010.8
20260505071106 45 217 1.0 2.0 0.00 0.00 0.00 91 1010.8
20260505070107 45 217 0.0 0.0 0.00 0.00 0.00 91 1010.8
20260505065106 45 217 0.0 0.0 0.00 0.00 0.00 91 1010.8
20260505064607 46 217 1.0 2.0 0.00 0.00 0.00 91 1010.9
20260505064107 46 217 0.0 2.0 0.00 0.00 0.00 91 1011.0
20260505063607 46 217 0.0 0.0 0.00 0.00 0.00 91 1011.0
20260505062607 46 217 1.0 2.0 0.00 0.00 0.00 90 1011.0
20260505062107 46 217 0.0 1.0 0.00 0.00 0.00 90 1011.1
20260505061106 46 217 0.0 1.0 0.00 0.00 0.00 90 1011.0
20260505060606 46 217 0.0 2.0 0.00 0.00 0.00 90 1011.1
20260505060108 46 217 1.0 2.0 0.00 0.00 0.00 90 1011.1
20260505055107 46 217 0.0 0.0 0.00 0.00 0.00 89 1011.1
20260505054607 46 217 0.0 1.0 0.00 0.00 0.00 89 1011.2
20260505054107 46 217 1.0 2.0 0.00 0.00 0.00 89 1011.3
20260505053606 46 217 1.0 1.0 0.00 0.00 0.00 88 1011.3
20260505053107 46 217 0.0 1.0 0.00 0.00 0.00 88 1011.3
20260505052606 46 217 0.0 2.0 0.00 0.00 0.00 88 1011.3
20260505052107 47 217 1.0 2.0 0.00 0.00 0.00 87 1011.3
20260505051607 47 217 0.0 0.0 0.00 0.00 0.00 87 1011.3
20260505050607 47 217 0.0 0.0 0.00 0.00 0.00 87 1011.4
20260505050106 47 217 0.0 1.0 0.00 0.00 0.00 87 1011.4
20260505041606 49 217 0.0 1.0 0.00 0.00 0.00 84 1011.7
20260505040606 49 217 0.0 1.0 0.00 0.00 0.00 84 1011.7
20260505040106 49 217 0.0 1.0 0.00 0.00 0.00 84 1011.7
20260505035607 50 217 0.0 1.0 0.00 0.00 0.00 84 1011.6
20260505035107 50 217 0.0 0.0 0.00 0.00 0.00 84 1011.6
20260505034606 50 217 0.0 0.0 0.00 0.00 0.00 84 1011.6
20260505034106 50 217 0.0 1.0 0.00 0.00 0.00 84 1011.5
20260505033607 50 217 0.0 2.0 0.00 0.00 0.00 84 1011.5
20260505033106 51 217 1.0 2.0 0.00 0.00 0.00 83 1011.5
20260505032606 51 217 0.0 1.0 0.00 0.00 0.00 83 1011.5
20260505032106 51 217 0.0 2.0 0.00 0.00 0.00 83 1011.5
20260505031606 51 217 0.0 1.0 0.00 0.00 0.00 83 1011.5
20260505031106 51 217 0.0 1.0 0.00 0.00 0.00 82 1011.6
20260505030606 51 217 1.0 1.0 0.00 0.00 0.00 82 1011.6
20260505030107 52 217 0.0 1.0 0.00 0.00 0.00 81 1011.5
20260505025607 52 217 0.0 2.0 0.00 0.00 0.00 81 1011.6
20260505025106 52 217 1.0 2.0 0.00 0.00 0.00 81 1011.5
20260505024607 52 217 0.0 1.0 0.00 0.00 0.00 80 1011.5
20260505024106 52 217 1.0 1.0 0.00 0.00 0.00 80 1011.5
20260505023606 53 217 1.0 2.0 0.00 0.00 0.00 80 1011.6
20260505023106 53 217 1.0 3.0 0.00 0.00 0.00 79 1011.6
20260505022606 53 217 1.0 3.0 0.00 0.00 0.00 78 1011.7
20260505022106 53 180 0.0 1.0 0.00 0.00 0.00 78 1011.7
20260505021606 54 181 0.0 1.0 0.00 0.00 0.00 77 1011.6
20260505021106 54 181 0.0 1.0 0.00 0.00 0.00 77 1011.7
20260505020107 54 181 0.0 0.0 0.00 0.00 0.00 76 1011.7
20260505015606 55 181 0.0 1.0 0.00 0.00 0.00 75 1011.6
20260505015106 55 181 0.0 0.0 0.00 0.00 0.00 75 1011.6
20260505014606 55 181 0.0 0.0 0.00 0.00 0.00 74 1011.6
20260505014106 55 181 0.0 1.0 0.00 0.00 0.00 74 1011.6
20260505012606 56 140 0.0 1.0 0.00 0.00 0.00 73 1011.5
20260505012106 56 140 0.0 2.0 0.00 0.00 0.00 73 1011.5
20260505011606 56 217 1.0 2.0 0.00 0.00 0.00 73 1011.4
20260505011107 56 216 1.0 2.0 0.00 0.00 0.00 72 1011.4
20260505010606 56 218 1.0 6.0 0.00 0.00 0.00 71 1011.2
20260505005606 57 211 1.0 5.0 0.00 0.00 0.00 70 1011.1
20260505005106 57 215 2.0 7.0 0.00 0.00 0.00 70 1011.1
20260505003606 57 232 2.0 3.0 0.00 0.00 0.00 68 1010.9
20260505003106 57 201 1.0 6.0 0.00 0.00 0.00 67 1010.9
20260505002606 58 226 1.0 6.0 0.00 0.00 0.00 67 1010.9
20260505002106 58 186 0.0 6.0 0.00 0.00 0.00 67 1010.7
20260505001606 58 179 1.0 5.0 0.00 0.00 0.00 66 1010.6
20260505001106 58 232 2.0 12.0 0.00 0.00 0.00 65 1010.5
20260505000107 59 238 0.0 3.0 0.00 0.00 0.00 64 1010.3
20260504235606 59 210 2.0 3.0 0.00 0.00 0.00 63 1010.2
20260504235106 59 216 3.0 7.0 0.00 0.00 0.00 62 1010.2
20260504234606 59 225 1.0 5.0 0.00 0.00 0.00 62 1010.1
20260504234106 60 217 2.0 5.0 0.00 0.00 0.00 62 1010.1
20260504233606 60 187 2.0 5.0 0.00 0.00 0.00 61 1010.0
20260504233106 60 198 0.0 3.0 0.00 0.00 0.00 61 1010.0
20260504232106 61 211 2.0 3.0 0.00 0.00 0.00 60 1009.9
20260504231106 61 193 2.0 8.0 0.00 0.00 0.00 58 1009.8
20260504230606 61 196 1.0 8.0 0.00 0.00 0.00 58 1009.8